Weather Roundup
Issued by NWS Corpus Christi, TX

Home | Current Version | Previous Version | Text Only | Print | Product List | Glossary On
Versions: 1 2 3 4 5 6 7 8 9 10 11 12 13 14 15 16 17 18 19 20 21 22 23 24 25 26 27 28 29 30 31 32 33 34 35 36 37 38 39 40 41 42 43 44 45 46 47 48 49 50
000
ASUS44 KCRP 042210
HRRCRP

SOUTH TEXAS REGIONAL WEATHER ROUNDUP
NATIONAL WEATHER SERVICE CORPUS CHRISTI TX
500 PM CDT SAT JUL 04 2015


TXZ229>244-042300-
...CORPUS CHRISTI AREA OBSERVATIONS...

CITY           SKY/WX    TMP DP  RH WIND       PRES   REMARKS
CORPUS CHRISTI PTSUNNY   89  75  63 SE21G28   29.95F HX  99
NAS CORPUS CHR MOSUNNY   87  79  76 SE17G24   29.95F HX 101
ROCKPORT       LGT RAIN  87  77  72 S12G20    29.96F HX  99
KINGSVILLE NAS MOSUNNY   88  73  61 S21       29.92F HX  95
ALICE          MOSUNNY   91  77  63 SE15G26   29.91F HX 104
FALFURRIAS     MOSUNNY   89  71  54 SE15      29.91F HX  94
$$

...VICTORIA AREA OBSERVATIONS...

CITY           SKY/WX    TMP DP  RH WIND       PRES   REMARKS
VICTORIA       PTSUNNY   88  76  67 S15G25    29.97F HX  99
BEEVILLE       FAIR      88  75  65 SE18G24   29.95F HX  97
PLEASANTON     SUNNY     91  71  51 SE15      29.93F HX  97
SAN ANTONIO    MOSUNNY   91  70  49 S15G23    29.95F HX  96
$$

...LAREDO AREA OBSERVATIONS...

CITY           SKY/WX    TMP DP  RH WIND       PRES   REMARKS
LAREDO         MOSUNNY   97  69  39 SE16G28   29.88F HX 102
COTULLA        LGT RAIN  94  70  45 S15G24    29.89F HX 100
DEL RIO        MOSUNNY   91  68  46 SE15G28   29.88F HX  95
MCALLEN        MOSUNNY   94  71  47 SE15      29.90F HX 101
HEBBRONVILLE     N/A     92  70  48 SE17      29.91F HX  97
$$

...OTHER TEXAS OBSERVATIONS...

CITY           SKY/WX    TMP DP  RH WIND       PRES   REMARKS
BROWNSVILLE    MOSUNNY   88  69  53 S14G23    29.93F HX  92
HOUSTON        PTSUNNY   87  76  69 S13       29.98S HX  97
COL. STATION   MOSUNNY   90  72  55 S14       29.97F HX  97
AUSTIN         PTSUNNY   89  73  59 S14       29.94F HX  97
WACO           MOSUNNY   94  69  44 S13       29.93F HX  99
FORT WORTH     MOSUNNY   93  68  43 SW8       29.92S HX  97
WICHITA FALLS  SUNNY     92  68  45 S14G22    29.88F HX  96
LUBBOCK        MOSUNNY   91  59  33 SE14      29.99F HX  90
EL PASO        PTSUNNY   93  52  24 E7        29.93F HX  90
$$

...MARINE OBSERVATIONS...

STATION/POSITION TIME  SKY/WX   TEMP    WIND        PRES    VSBY  WAVE   SWELL
                                AIR SEA DIR/SP/G                  HT/PER HT/PER
                 (UTC)          (F)     (DEG/KT/KT) (MB)    (MI)  (FT/S) (FT/S)
PORT ARANSAS     2100            83 84  140/ 12/ 13 1016.0F
BUOY 90 E PORT A NOT AVBL
BUOY 45 SE BAFFI 2150            82 83  180/ 12/ 14 1013.8F         4/ 6   3/ 6
BUOY 200 E PT IS 2150            85 84  170/ 12/ 12 1016.1F         3/ 5   2/ 6
BUOY 15 E GALVES 2150            85 85  190/ 14/ 16 1015.6F         3/ 6
$$


USA.gov is the U.S. government's official web portal to all federal, state and local government web resources and services.